Location: Newark
(52.3500°N, 175.9667°E)
Time: 11:00:49
(UTC+00:00)

Transit 4A - Pass Details

Date: 26 April 2021
Orbit: 870 x 974 km, 66.8° (Epoch: 07 May)

Event Time Altitude Azimuth Distance (km) Brightness Sun altitude
Rises 15:44:39 0° 309° (NW) 3,557 10.8 -9.9°
Reaches altitude 10° 15:47:46 10° 324° (NW) 2,595 10.3 -9.5°
Maximum altitude 15:52:27 23° 16° (NNE) 1,809 10.2 -8.9°
Drops below altitude 10° 15:57:04 10° 68° (ENE) 2,545 11.7 -8.4°
Sets 16:00:05 0° 82° (E) 3,472 12.2 -8.0°
